,,Stat1,,Stat2,,Stat3,,Stat4,,Wind1,,Wind1,
time,status,PR1M_SUM,status,RH1M_AVG,status,SR1M_AVG,status,TA1M_AVG,status,W1dAve1m,status,W1sAve1m,
1999-09-05, 00:01:00,VALID,0,VALID,100,VALID,-0.0849042,VALID,16.8612,VALID,313,VALID,0.868359,
1999-09-05, 00:02:01,VALID,0,VALID,100,VALID,-0.101885,VALID,16.8317,VALID,325,VALID,1.07728,
1999-09-05, 00:03:00,VALID,0,VALID,100,VALID,-0.0849042,VALID,16.8125,VALID,326,VALID,1.2097,
1999-09-05, 00:04:00,VALID,0,VALID,100,VALID,-0.0679233,VALID,16.8388,VALID,312,VALID,0.984581,
1999-09-05, 00:05:00,VALID,0,VALID,100,VALID,-0.0849042,VALID,16.8091,VALID,324,VALID,1.63492,
1999-09-05, 00:06:00,VALID,0,VALID,100,VALID,-0.0849042,VALID,16.7925,VALID,318,VALID,1.14206,
1999-09-05, 00:07:00,VALID,0,VALID,100,VALID,-0.0849042,VALID,16.8056,VALID,1,VALID,0.911024,
1999-09-05, 00:08:00,VALID,0,VALID,100,VALID,-0.0849042,VALID,16.8095,VALID,335,VALID,1.15907,
1999-09-05, 00:09:00,VALID,0,VALID,100,VALID,-0.101885,VALID,16.8229,VALID,333,VALID,0.575863,
1999-09-05, 00:10:00,VALID,0,VALID,100,VALID,-0.118866,VALID,16.8289,VALID,308,VALID,0.318257,
1999-09-05, 00:11:00,VALID,0.2,VALID,100,VALID,-0.101885,VALID,16.8388,VALID,307,VALID,0.10067,
1999-09-05, 00:12:00,VALID,0,VALID,100,VALID,-0.101885,VALID,16.8677,VALID,271,VALID,0.0502804,
1999-09-05, 00:13:01,VALID,0,VALID,100,VALID,-0.101885,VALID,16.9002,VALID,207,VALID,0.625,
1999-09-05, 00:14:00,VALID,0,VALID,100,VALID,-0.101885,VALID,16.8838,VALID,265,VALID,0.280633,
1999-09-05, 00:15:00,VALID,0,VALID,100,VALID,-0.101885,VALID,16.9002,VALID,285,VALID,0.5,
1999-09-05, 00:16:00,VALID,0,VALID,100,VALID,-0.135847,VALID,16.9168,VALID,277,VALID,0.253038,
1999-09-05, 00:17:00,VALID,0,VALID,100,VALID,-0.118866,VALID,16.9194,VALID,283,VALID,0.133413,
1999-09-05, 00:18:00,VALID,0,VALID,100,VALID,-0.101885,VALID,16.9192,VALID,311,VALID,0.561655,
1999-09-05, 00:19:00,VALID,0,VALID,100,VALID,-0.118866,VALID,16.9161,VALID,309,VALID,0.208984,
1999-09-05, 00:20:00,VALID,0,VALID,100,VALID,-0.101885,VALID,16.9228,VALID,329,VALID,0.528045,
1999-09-05, 00:21:00,VALID,0,VALID,100,VALID,-0.118866,VALID,16.8935,VALID,329,VALID,0.520059,
1999-09-05, 00:22:01,VALID,0,VALID,100,VALID,-0.101885,VALID,16.8907,VALID,10,VALID,0.531013,
1999-09-05, 00:23:00,VALID,0,VALID,100,VALID,-0.0169808,VALID,16.8957,VALID,101,VALID,0.431891,
1999-09-05, 00:24:01,VALID,0,VALID,100,VALID,0,VALID,16.9306,VALID,130,VALID,0.611637,
1999-09-05, 00:25:00,VALID,0,VALID,100,VALID,0,VALID,16.9793,VALID,31,VALID,0.323785,
1999-09-05, 00:26:00,VALID,0,VALID,100,VALID,0,VALID,16.9692,VALID,354,VALID,0.286384,
1999-09-05, 00:27:00,VALID,0,VALID,100,VALID,-0.0169808,VALID,16.9569,VALID,297,VALID,0.441602,
1999-09-05, 00:28:00,VALID,0,VALID,100,VALID,0,VALID,16.9439,VALID,355,VALID,0.24116,
1999-09-05, 00:29:00,VALID,0,VALID,100,VALID,0,VALID,16.9638,VALID,206,VALID,0,
1999-09-05, 00:30:00,VALID,0,VALID,100,VALID,0,VALID,16.9728,VALID,216,VALID,0,
1999-09-05, 00:31:00,VALID,0,VALID,100,VALID,0,VALID,16.9864,VALID,247,VALID,0,
1999-09-05, 00:32:00,VALID,0,VALID,100,VALID,0,VALID,16.976,VALID,307,VALID,0.266226,
1999-09-05, 00:33:00,VALID,0,VALID,100,VALID,-0.0169808,VALID,16.9984,VALID,25,VALID,0.319046,
1999-09-05, 00:34:00,VALID,0,VALID,100,VALID,0,VALID,17.0411,VALID,133,VALID,0.58277,
1999-09-05, 00:35:00,VALID,0,VALID,100,VALID,-0.0169808,VALID,17.0314,VALID,87,VALID,0.672297,
1999-09-05, 00:36:00,VALID,0,VALID,100,VALID,0,VALID,17.0411,VALID,15,VALID,0.215049,
1999-09-05, 00:37:00,VALID,0,VALID,100,VALID,0,VALID,17.0249,VALID,288,VALID,0.0733507,
1999-09-05, 00:38:00,VALID,0,VALID,100,VALID,-0.0169808,VALID,17.0187,VALID,286,VALID,0.00211149,
1999-09-05, 00:39:00,VALID,0.2,VALID,100,VALID,-0.0169808,VALID,17.0152,VALID,276,VALID,0.00130208,
1999-09-05, 00:40:00,VALID,0,VALID,100,VALID,0,VALID,17.0114,VALID,277,VALID,0.0495427,
1999-09-05, 00:41:00,VALID,0,VALID,100,VALID,0.0169808,VALID,17.0019,VALID,137,VALID,0.590061,
1999-09-05, 00:42:00,VALID,0,VALID,100,VALID,0,VALID,17.0183,VALID,95,VALID,0.135156,
1999-09-05, 00:43:00,VALID,0,VALID,100,VALID,0,VALID,17.0017,VALID,100,VALID,0.608964,
1999-09-05, 00:44:00,VALID,0,VALID,100,VALID,0,VALID,17.0572,VALID,101,VALID,1.14189,
1999-09-05, 00:45:00,VALID,0,VALID,100,VALID,0.0169808,VALID,17.0797,VALID,96,VALID,1.30723,
1999-09-05, 00:46:00,VALID,0,VALID,100,VALID,0,VALID,17.1051,VALID,98,VALID,1.09619,
1999-09-05, 00:47:00,VALID,0,VALID,100,VALID,0.0169808,VALID,17.1049,VALID,100,VALID,1.09756,
1999-09-05, 00:48:00,VALID,0,VALID,100,VALID,0,VALID,17.1081,VALID,100,VALID,1.16756,
1999-09-05, 00:49:00,VALID,0,VALID,100,VALID,0.0169808,VALID,17.1083,VALID,105,VALID,1.07175,
1999-09-05, 00:50:00,VALID,0,VALID,100,VALID,0,VALID,17.0794,VALID,94,VALID,1.19362,
1999-09-05, 00:51:00,VALID,0,VALID,100,VALID,0,VALID,17.0986,VALID,99,VALID,1.07196,
1999-09-05, 00:52:00,VALID,0,VALID,100,VALID,0,VALID,17.1316,VALID,100,VALID,0.858724,
1999-09-05, 00:53:00,VALID,0,VALID,100,VALID,-0.0169808,VALID,17.0993,VALID,83,VALID,1.03928,
1999-09-05, 00:54:00,VALID,0,VALID,100,VALID,0,VALID,17.0764,VALID,66,VALID,0.746299,
1999-09-05, 00:55:00,VALID,0,VALID,100,VALID,0.0339617,VALID,17.057,VALID,80,VALID,1.07607,
1999-09-05, 00:56:00,VALID,0,VALID,100,VALID,0,VALID,17.0344,VALID,74,VALID,0.816964,
1999-09-05, 00:57:00,VALID,0,VALID,100,VALID,0,VALID,17.0088,VALID,70,VALID,0.950721,
1999-09-05, 00:58:00,VALID,0,VALID,100,VALID,0,VALID,16.9788,VALID,98,VALID,0.856841,
1999-09-05, 00:59:00,VALID,0,VALID,100,VALID,0,VALID,16.9984,VALID,89,VALID,0.728618,
1999-09-05, 01:00:00,VALID,0,VALID,100,VALID,0,VALID,16.989,VALID,51,VALID,0.626562,
1999-09-05, 01:01:00,VALID,0,VALID,100,VALID,0,VALID,16.9918,VALID,102,VALID,0.49349,
1999-09-05, 01:02:00,VALID,0,VALID,100,VALID,0,VALID,17.0116,VALID,111,VALID,0.19371,
1999-09-05, 01:03:00,VALID,0,VALID,100,VALID,0,VALID,17.0443,VALID,118,VALID,0.374367,
1999-09-05, 01:04:00,VALID,0,VALID,100,VALID,0,VALID,17.07,VALID,107,VALID,0.489258,
1999-09-05, 01:05:00,VALID,0,VALID,100,VALID,0,VALID,17.1053,VALID,79,VALID,0.197316,
1999-09-05, 01:06:00,VALID,0,VALID,100,VALID,0,VALID,17.1281,VALID,77,VALID,0.00211149,
1999-09-05, 01:07:01,VALID,0,VALID,100,VALID,0,VALID,17.1376,VALID,76,VALID,0,
1999-09-05, 01:08:00,VALID,0,VALID,100,VALID,0,VALID,17.1281,VALID,74,VALID,0.0010016,
1999-09-05, 01:09:00,VALID,0,VALID,100,VALID,-0.0339617,VALID,17.1217,VALID,51,VALID,0.0647615,
1999-09-05, 01:10:00,VALID,0,VALID,100,VALID,0,VALID,17.1283,VALID,230,VALID,0.238281,
1999-09-05, 01:11:00,VALID,0,VALID,100,VALID,0,VALID,17.1281,VALID,215,VALID,0.0803571,
1999-09-05, 01:12:00,VALID,0,VALID,100,VALID,-0.0169808,VALID,17.1475,VALID,215,VALID,0.00429688,
1999-09-05, 01:13:00,VALID,0,VALID,100,VALID,0,VALID,17.1602,VALID,215,VALID,0,
1999-09-05, 01:14:00,VALID,0,VALID,100,VALID,-0.0169808,VALID,17.1764,VALID,214,VALID,0,
1999-09-05, 01:15:00,VALID,0,VALID,100,VALID,0,VALID,17.1962,VALID,243,VALID,0,
1999-09-05, 01:16:00,VALID,0,VALID,100,VALID,-0.0339617,VALID,17.1574,VALID,276,VALID,0,
1999-09-05, 01:17:00,VALID,0,VALID,100,VALID,0,VALID,17.1344,VALID,276,VALID,0.0128205,
1999-09-05, 01:18:00,VALID,0,VALID,100,VALID,0,VALID,17.1023,VALID,285,VALID,0.221917,
1999-09-05, 01:19:00,VALID,0.2,VALID,100,VALID,-0.0169808,VALID,17.0956,VALID,302,VALID,0.16174,
1999-09-05, 01:20:00,VALID,0,VALID,100,VALID,0,VALID,17.1085,VALID,302,VALID,0.101351,
1999-09-05, 01:21:00,VALID,0,VALID,100,VALID,0,VALID,17.112,VALID,302,VALID,0,
1999-09-05, 01:22:00,VALID,0,VALID,100,VALID,0.0169808,VALID,17.0788,VALID,302,VALID,0,
1999-09-05, 01:23:00,VALID,0,VALID,100,VALID,0,VALID,17.0928,VALID,302,VALID,0,
1999-09-05, 01:24:00,VALID,0,VALID,100,VALID,0,VALID,17.112,VALID,302,VALID,0,
1999-09-05, 01:25:00,VALID,0,VALID,100,VALID,-0.0169808,VALID,17.1178,VALID,302,VALID,0,
1999-09-05, 01:26:00,VALID,0,VALID,100,VALID,0,VALID,17.1406,VALID,271,VALID,0,
1999-09-05, 01:27:00,VALID,0,VALID,100,VALID,0,VALID,17.1404,VALID,248,VALID,0,
1999-09-05, 01:28:00,VALID,0,VALID,100,VALID,0,VALID,17.1406,VALID,243,VALID,0,
1999-09-05, 01:29:00,VALID,0,VALID,100,VALID,0,VALID,17.1475,VALID,243,VALID,0,
1999-09-05, 01:30:00,VALID,0,VALID,100,VALID,0,VALID,17.1378,VALID,243,VALID,0,
1999-09-05, 01:31:00,VALID,0,VALID,100,VALID,0,VALID,17.1115,VALID,243,VALID,0,
1999-09-05, 01:32:00,VALID,0,VALID,100,VALID,0,VALID,17.1085,VALID,243,VALID,0,
1999-09-05, 01:33:00,VALID,0,VALID,100,VALID,0,VALID,17.118,VALID,241,VALID,0,
1999-09-05, 01:34:00,VALID,0,VALID,100,VALID,0,VALID,17.118,VALID,230,VALID,0,
1999-09-05, 01:35:00,VALID,0,VALID,100,VALID,-0.0169808,VALID,17.1212,VALID,228,VALID,0,
1999-09-05, 01:36:00,VALID,0,VALID,100,VALID,0,VALID,17.1184,VALID,228,VALID,0,
1999-09-05, 01:37:00,VALID,0,VALID,100,VALID,-0.0169808,VALID,17.1057,VALID,228,VALID,0,
1999-09-05, 01:38:00,VALID,0,VALID,100,VALID,0,VALID,17.1018,VALID,227,VALID,0,
1999-09-05, 01:39:00,VALID,0,VALID,100,VALID,0,VALID,17.1148,VALID,227,VALID,0,
1999-09-05, 01:40:00,VALID,0,VALID,100,VALID,0,VALID,17.1245,VALID,227,VALID,0,
1999-09-05, 01:41:00,VALID,0,VALID,100,VALID,-0.0169808,VALID,17.1402,VALID,227,VALID,0,
1999-09-05, 01:42:00,VALID,0,VALID,100,VALID,0,VALID,17.1697,VALID,227,VALID,0,
1999-09-05, 01:43:00,VALID,0,VALID,100,VALID,0,VALID,17.1759,VALID,227,VALID,0,
1999-09-05, 01:44:00,VALID,0,VALID,100,VALID,0,VALID,17.1951,VALID,221,VALID,0,
1999-09-05, 01:45:00,VALID,0,VALID,100,VALID,0,VALID,17.2147,VALID,211,VALID,0,
1999-09-05, 01:46:00,VALID,0,VALID,100,VALID,0,VALID,17.2468,VALID,167,VALID,0.107856,
1999-09-05, 01:47:00,VALID,0,VALID,100,VALID,0,VALID,17.283,VALID,121,VALID,0.329928,
1999-09-05, 01:48:00,VALID,0,VALID,100,VALID,0,VALID,17.2759,VALID,118,VALID,0.311655,
1999-09-05, 01:49:00,VALID,0.2,VALID,100,VALID,0,VALID,17.2895,VALID,117,VALID,0.408398,
1999-09-05, 01:50:00,VALID,0,VALID,100,VALID,0,VALID,17.3054,VALID,116,VALID,0.412059,
1999-09-05, 01:51:00,VALID,0,VALID,100,VALID,0,VALID,17.3026,VALID,102,VALID,0.4981,
1999-09-05, 01:52:00,VALID,0,VALID,100,VALID,0,VALID,17.2729,VALID,100,VALID,0.468513,
1999-09-05, 01:53:00,VALID,0,VALID,100,VALID,0.0169808,VALID,17.2856,VALID,105,VALID,0.4375,
1999-09-05, 01:54:00,VALID,0,VALID,100,VALID,0,VALID,17.3022,VALID,108,VALID,0.461349,
1999-09-05, 01:55:00,VALID,0,VALID,100,VALID,0,VALID,17.322,VALID,109,VALID,0.548177,
1999-09-05, 01:56:00,VALID,0,VALID,100,VALID,0.0169808,VALID,17.3248,VALID,105,VALID,0.495313,
1999-09-05, 01:57:00,VALID,0,VALID,100,VALID,0,VALID,17.2985,VALID,105,VALID,0.404492,
1999-09-05, 01:58:00,VALID,0,VALID,100,VALID,0,VALID,17.2759,VALID,100,VALID,0.419408,
1999-09-05, 01:59:00,VALID,0,VALID,100,VALID,0.0169808,VALID,17.2699,VALID,110,VALID,0.424696,
1999-09-05, 02:00:00,VALID,0,VALID,100,VALID,0,VALID,17.2729,VALID,88,VALID,0.586338,
1999-09-05, 02:01:00,VALID,0,VALID,100,VALID,0.0169808,VALID,17.2731,VALID,87,VALID,0.49783,
1999-09-05, 02:02:00,VALID,0,VALID,100,VALID,0,VALID,17.247,VALID,87,VALID,0.38101,
1999-09-05, 02:03:00,VALID,0,VALID,100,VALID,0,VALID,17.247,VALID,98,VALID,0.508024,
1999-09-05, 02:04:00,VALID,0,VALID,100,VALID,0,VALID,17.2341,VALID,97,VALID,0.497889,
1999-09-05, 02:05:00,VALID,0,VALID,100,VALID,0.0169808,VALID,17.2311,VALID,96,VALID,0.48902,
1999-09-05, 02:06:00,VALID,0,VALID,100,VALID,0.0339617,VALID,17.2276,VALID,88,VALID,0.474918,
1999-09-05, 02:07:00,VALID,0,VALID,100,VALID,0,VALID,17.2343,VALID,91,VALID,0.336372,
1999-09-05, 02:08:00,VALID,0,VALID,100,VALID,0.0169808,VALID,17.2313,VALID,127,VALID,0.133235,
1999-09-05, 02:09:00,VALID,0,VALID,100,VALID,0.0339617,VALID,17.2048,VALID,130,VALID,0,
1999-09-05, 02:10:00,VALID,0,VALID,100,VALID,0.0679233,VALID,17.1988,VALID,122,VALID,0,
1999-09-05, 02:11:00,VALID,0,VALID,100,VALID,0.0339617,VALID,17.205,VALID,112,VALID,0.106337,
1999-09-05, 02:12:00,VALID,0,VALID,100,VALID,0,VALID,17.2115,VALID,97,VALID,0.394141,
1999-09-05, 02:13:00,VALID,0,VALID,100,VALID,0.0169808,VALID,17.205,VALID,95,VALID,0.478618,
1999-09-05, 02:14:00,VALID,0,VALID,100,VALID,0.0169808,VALID,17.1986,VALID,95,VALID,0.78484,
1999-09-05, 02:15:00,VALID,0,VALID,100,VALID,0.0169808,VALID,17.1988,VALID,98,VALID,0.63457,
1999-09-05, 02:16:00,VALID,0,VALID,100,VALID,0,VALID,17.1895,VALID,101,VALID,0.628906,
1999-09-05, 02:17:00,VALID,0,VALID,100,VALID,0.0339617,VALID,17.1665,VALID,94,VALID,0.821715,
1999-09-05, 02:18:00,VALID,0,VALID,100,VALID,0,VALID,17.18,VALID,94,VALID,0.663857,
1999-09-05, 02:19:00,VALID,0,VALID,100,VALID,0,VALID,17.1759,VALID,91,VALID,0.749383,
1999-09-05, 02:20:00,VALID,0,VALID,100,VALID,0,VALID,17.1436,VALID,90,VALID,0.83087,
1999-09-05, 02:21:00,VALID,0,VALID,100,VALID,0,VALID,17.1538,VALID,84,VALID,0.837788,
1999-09-05, 02:22:00,VALID,0,VALID,100,VALID,0.0169808,VALID,17.157,VALID,97,VALID,0.535373,
1999-09-05, 02:23:00,VALID,0,VALID,100,VALID,0.0169808,VALID,17.157,VALID,100,VALID,0.549913,
1999-09-05, 02:24:01,VALID,0,VALID,100,VALID,0,VALID,17.1535,VALID,106,VALID,0.571752,
1999-09-05, 02:25:00,VALID,0,VALID,100,VALID,0.0339617,VALID,17.1738,VALID,113,VALID,0.534745,
1999-09-05, 02:26:00,VALID,0,VALID,100,VALID,0,VALID,17.1794,VALID,112,VALID,0.408929,
1999-09-05, 02:27:00,VALID,0,VALID,100,VALID,0,VALID,17.1996,VALID,100,VALID,0.492188,
1999-09-05, 02:28:00,VALID,0,VALID,100,VALID,0,VALID,17.1798,VALID,100,VALID,0.665118,
1999-09-05, 02:29:00,VALID,0,VALID,100,VALID,-0.0169808,VALID,17.1865,VALID,75,VALID,0.892681,
1999-09-05, 02:30:00,VALID,0,VALID,100,VALID,-0.0169808,VALID,17.196,VALID,82,VALID,1.09609,
1999-09-05, 02:31:00,VALID,0,VALID,100,VALID,-0.0169808,VALID,17.199,VALID,85,VALID,1.10265,
1999-09-05, 02:32:00,VALID,0,VALID,100,VALID,0,VALID,17.1962,VALID,89,VALID,1.11258,
1999-09-05, 02:33:00,VALID,0,VALID,100,VALID,0,VALID,17.1858,VALID,81,VALID,0.821791,
1999-09-05, 02:34:00,VALID,0,VALID,100,VALID,0,VALID,17.1925,VALID,81,VALID,0.307031,
1999-09-05, 02:35:00,VALID,0,VALID,100,VALID,0,VALID,17.1824,VALID,82,VALID,0.364383,
1999-09-05, 02:36:00,VALID,0,VALID,100,VALID,0,VALID,17.2089,VALID,73,VALID,0.726985,
1999-09-05, 02:37:00,VALID,0,VALID,100,VALID,0.0169808,VALID,17.2055,VALID,84,VALID,0.463542,
1999-09-05, 02:38:00,VALID,0,VALID,100,VALID,0.0169808,VALID,17.2151,VALID,82,VALID,0.379006,
1999-09-05, 02:39:00,VALID,0,VALID,100,VALID,0.0169808,VALID,17.2214,VALID,84,VALID,0.391859,
1999-09-05, 02:40:00,VALID,0,VALID,100,VALID,0,VALID,17.2279,VALID,80,VALID,0.6875,
1999-09-05, 02:41:00,VALID,0,VALID,100,VALID,0.0169808,VALID,17.2343,VALID,76,VALID,0.416518,
1999-09-05, 02:42:00,VALID,0,VALID,100,VALID,0,VALID,17.2511,VALID,63,VALID,0.15332,
1999-09-05, 02:43:00,VALID,0,VALID,100,VALID,0,VALID,17.2608,VALID,84,VALID,0.481291,
1999-09-05, 02:44:00,VALID,0,VALID,100,VALID,0,VALID,17.2535,VALID,84,VALID,0.41862,
1999-09-05, 02:45:00,VALID,0,VALID,100,VALID,0,VALID,17.2636,VALID,90,VALID,0.200921,
1999-09-05, 02:46:01,VALID,0,VALID,100,VALID,0,VALID,17.277,VALID,67,VALID,0.335069,
1999-09-05, 02:47:00,VALID,0,VALID,100,VALID,0,VALID,17.2668,VALID,84,VALID,0.592147,
1999-09-05, 02:48:00,VALID,0,VALID,100,VALID,0,VALID,17.2929,VALID,92,VALID,0.752745,
1999-09-05, 02:49:00,VALID,0,VALID,100,VALID,0.0169808,VALID,17.2957,VALID,91,VALID,0.886402,
1999-09-05, 02:50:00,VALID,0,VALID,100,VALID,0.0169808,VALID,17.319,VALID,94,VALID,0.628801,
1999-09-05, 02:51:00,VALID,0,VALID,100,VALID,0,VALID,17.302,VALID,96,VALID,0.477385,
1999-09-05, 02:52:00,VALID,0,VALID,100,VALID,0.0169808,VALID,17.3054,VALID,99,VALID,0.409939,
1999-09-05, 02:53:00,VALID,0,VALID,100,VALID,0.0169808,VALID,17.3151,VALID,100,VALID,0.379223,
1999-09-05, 02:54:00,VALID,0,VALID,100,VALID,0.0339617,VALID,17.3052,VALID,93,VALID,0.472005,
1999-09-05, 02:55:00,VALID,0,VALID,100,VALID,0.0339617,VALID,17.319,VALID,87,VALID,0.50686,
1999-09-05, 02:56:00,VALID,0,VALID,100,VALID,0.0169808,VALID,17.3121,VALID,86,VALID,0.407552,
1999-09-05, 02:57:01,VALID,0,VALID,100,VALID,0,VALID,17.3384,VALID,86,VALID,0.507617,
1999-09-05, 02:58:00,VALID,0,VALID,100,VALID,0,VALID,17.341,VALID,87,VALID,0.676398,
1999-09-05, 02:59:00,VALID,0,VALID,100,VALID,0.0169808,VALID,17.3539,VALID,83,VALID,0.91174,
1999-09-05, 03:00:00,VALID,0,VALID,100,VALID,0.0339617,VALID,17.3832,VALID,93,VALID,0.836719,
1999-09-05, 03:01:00,VALID,0,VALID,100,VALID,0.0339617,VALID,17.3991,VALID,95,VALID,0.845703,
1999-09-05, 03:02:00,VALID,0,VALID,100,VALID,0,VALID,17.4026,VALID,92,VALID,0.727564,
1999-09-05, 03:03:00,VALID,0,VALID,100,VALID,0.0169808,VALID,17.3996,VALID,95,VALID,0.666941,
1999-09-05, 03:04:00,VALID,0,VALID,100,VALID,0,VALID,17.4092,VALID,95,VALID,0.562294,
1999-09-05, 03:05:00,VALID,0,VALID,100,VALID,0,VALID,17.4086,VALID,98,VALID,0.524071,
1999-09-05, 03:06:00,VALID,0.2,VALID,100,VALID,0.0169808,VALID,17.4213,VALID,90,VALID,0.451686,
1999-09-05, 03:07:00,VALID,0,VALID,100,VALID,0.0169808,VALID,17.4278,VALID,93,VALID,0.477865,
1999-09-05, 03:08:01,VALID,0,VALID,100,VALID,0,VALID,17.4312,VALID,92,VALID,0.641059,
1999-09-05, 03:09:00,VALID,0,VALID,100,VALID,0.0169808,VALID,17.4508,VALID,82,VALID,0.776521,
1999-09-05, 03:10:00,VALID,0,VALID,100,VALID,0,VALID,17.4702,VALID,87,VALID,0.56764,
1999-09-05, 03:11:00,VALID,0,VALID,100,VALID,0,VALID,17.4836,VALID,87,VALID,0.675893,
1999-09-05, 03:12:00,VALID,0,VALID,99.999,VALID,-0.0169808,VALID,17.4702,VALID,88,VALID,0.665064,
1999-09-05, 03:13:00,VALID,0,VALID,99.9944,VALID,0,VALID,17.4834,VALID,87,VALID,0.73353,
1999-09-05, 03:14:00,VALID,0,VALID,99.9847,VALID,0,VALID,17.5062,VALID,90,VALID,0.621299,
1999-09-05, 03:15:00,VALID,0,VALID,99.9621,VALID,-0.0169808,VALID,17.5159,VALID,95,VALID,0.495898,
1999-09-05, 03:16:00,VALID,0,VALID,99.9265,VALID,0,VALID,17.5226,VALID,98,VALID,0.246745,
1999-09-05, 03:17:00,VALID,0,VALID,99.9303,VALID,0.0169808,VALID,17.5191,VALID,105,VALID,0.0548878,
1999-09-05, 03:18:00,VALID,0,VALID,99.929,VALID,0,VALID,17.5284,VALID,105,VALID,0,
1999-09-05, 03:19:01,VALID,0,VALID,99.9151,VALID,0,VALID,17.529,VALID,105,VALID,0,
1999-09-05, 03:20:00,VALID,0,VALID,99.896,VALID,0,VALID,17.5217,VALID,105,VALID,0.0068109,
1999-09-05, 03:21:00,VALID,0,VALID,99.8934,VALID,-0.0339617,VALID,17.5422,VALID,106,VALID,0,
1999-09-05, 03:22:00,VALID,0,VALID,99.8782,VALID,0,VALID,17.5154,VALID,105,VALID,0,
1999-09-05, 03:23:00,VALID,0,VALID,99.8515,VALID,-0.0169808,VALID,17.5096,VALID,109,VALID,0,
1999-09-05, 03:24:00,VALID,0,VALID,99.8502,VALID,-0.0169808,VALID,17.5124,VALID,115,VALID,0,
1999-09-05, 03:25:00,VALID,0,VALID,99.8438,VALID,0,VALID,17.5023,VALID,115,VALID,0,
1999-09-05, 03:26:00,VALID,0,VALID,99.8438,VALID,-0.0169808,VALID,17.5127,VALID,115,VALID,0,
1999-09-05, 03:27:00,VALID,0,VALID,99.8413,VALID,0,VALID,17.5256,VALID,115,VALID,0,
1999-09-05, 03:28:00,VALID,0,VALID,99.8197,VALID,-0.0169808,VALID,17.5127,VALID,115,VALID,0,
1999-09-05, 03:29:00,VALID,0,VALID,99.8019,VALID,0,VALID,17.493,VALID,115,VALID,0,
1999-09-05, 03:30:01,VALID,0,VALID,99.7879,VALID,-0.0169808,VALID,17.4801,VALID,115,VALID,0,
1999-09-05, 03:31:00,VALID,0,VALID,99.7777,VALID,-0.0169808,VALID,17.4737,VALID,111,VALID,0.412977,
1999-09-05, 03:32:00,VALID,0,VALID,99.765,VALID,0,VALID,17.4676,VALID,106,VALID,0.660056,
1999-09-05, 03:33:00,VALID,0,VALID,99.7726,VALID,-0.0339617,VALID,17.4575,VALID,97,VALID,0.599873,
1999-09-05, 03:34:00,VALID,0,VALID,99.7892,VALID,0.0169808,VALID,17.4771,VALID,85,VALID,0.48712,
1999-09-05, 03:35:00,VALID,0,VALID,99.7688,VALID,0,VALID,17.4607,VALID,86,VALID,0.327492,
1999-09-05, 03:36:00,VALID,0,VALID,99.7421,VALID,-0.0169808,VALID,17.4474,VALID,86,VALID,0.375411,
1999-09-05, 03:37:00,VALID,0,VALID,99.7497,VALID,-0.0169808,VALID,17.445,VALID,86,VALID,0.523872,
1999-09-05, 03:38:00,VALID,0,VALID,99.7396,VALID,-0.0169808,VALID,17.4381,VALID,87,VALID,0.689823,
1999-09-05, 03:39:00,VALID,0,VALID,99.7358,VALID,0,VALID,17.4353,VALID,87,VALID,0.65625,
1999-09-05, 03:40:00,VALID,0,VALID,99.7688,VALID,-0.0169808,VALID,17.4543,VALID,87,VALID,0.57279,
1999-09-05, 03:41:00,VALID,0,VALID,99.7777,VALID,0,VALID,17.4478,VALID,87,VALID,0.493273,
1999-09-05, 03:42:00,VALID,0,VALID,99.7815,VALID,-0.0169808,VALID,17.4674,VALID,87,VALID,0.529492,
1999-09-05, 03:43:00,VALID,0,VALID,99.7599,VALID,-0.0169808,VALID,17.4868,VALID,94,VALID,0.479235,
1999-09-05, 03:44:00,VALID,0,VALID,99.7485,VALID,0,VALID,17.4803,VALID,97,VALID,0.300253,
1999-09-05, 03:45:00,VALID,0,VALID,99.6722,VALID,0,VALID,17.4441,VALID,102,VALID,0.420117,
1999-09-05, 03:46:00,VALID,0,VALID,99.6569,VALID,0.0169808,VALID,17.4148,VALID,116,VALID,0.552002,
1999-09-05, 03:47:00,VALID,0,VALID,99.6747,VALID,0.0169808,VALID,17.4215,VALID,113,VALID,0.489583,
1999-09-05, 03:48:00,VALID,0,VALID,99.6493,VALID,0.0509425,VALID,17.3989,VALID,112,VALID,0.48602,
1999-09-05, 03:49:00,VALID,0,VALID,99.6328,VALID,0,VALID,17.3993,VALID,113,VALID,0.646587,
1999-09-05, 03:50:00,VALID,0,VALID,99.662,VALID,-0.0169808,VALID,17.4088,VALID,117,VALID,0.767948,
1999-09-05, 03:51:00,VALID,0,VALID,99.6747,VALID,0,VALID,17.4317,VALID,117,VALID,0.563322,
1999-09-05, 03:52:00,VALID,0,VALID,99.6556,VALID,0,VALID,17.4381,VALID,116,VALID,0.373915,
1999-09-05, 03:53:00,VALID,0,VALID,99.6289,VALID,0,VALID,17.448,VALID,116,VALID,0.244575,
1999-09-05, 03:54:00,VALID,0,VALID,99.6226,VALID,-0.0169808,VALID,17.4476,VALID,116,VALID,0.218544,
1999-09-05, 03:55:00,VALID,0,VALID,99.6175,VALID,0,VALID,17.4377,VALID,116,VALID,0,
1999-09-05, 03:56:00,VALID,0,VALID,99.5959,VALID,0,VALID,17.4413,VALID,116,VALID,0,
1999-09-05, 03:57:00,VALID,0,VALID,99.6086,VALID,-0.0169808,VALID,17.4474,VALID,116,VALID,0,
1999-09-05, 03:58:00,VALID,0,VALID,99.615,VALID,0,VALID,17.4642,VALID,116,VALID,0,
1999-09-05, 03:59:00,VALID,0,VALID,99.5895,VALID,0,VALID,17.4413,VALID,116,VALID,0,
1999-09-05, 04:00:00,VALID,0,VALID,99.5412,VALID,0,VALID,17.4123,VALID,116,VALID,0,
1999-09-05, 04:01:00,VALID,0,VALID,99.5501,VALID,0.0339617,VALID,17.403,VALID,116,VALID,0,
1999-09-05, 04:02:00,VALID,0,VALID,99.5895,VALID,-0.0679233,VALID,17.4097,VALID,119,VALID,0,
1999-09-05, 04:03:00,VALID,0,VALID,99.615,VALID,-0.0169808,VALID,17.4151,VALID,121,VALID,0,
1999-09-05, 04:04:00,VALID,0,VALID,99.6353,VALID,0,VALID,17.4347,VALID,121,VALID,0,
1999-09-05, 04:05:00,VALID,0,VALID,99.6124,VALID,-0.0169808,VALID,17.4478,VALID,122,VALID,0,
1999-09-05, 04:06:00,VALID,0,VALID,99.6061,VALID,0,VALID,17.4607,VALID,122,VALID,0,
1999-09-05, 04:07:00,VALID,0,VALID,99.5844,VALID,0,VALID,17.4771,VALID,122,VALID,0,
1999-09-05, 04:08:00,VALID,0,VALID,99.5374,VALID,0,VALID,17.4575,VALID,122,VALID,0,
1999-09-05, 04:09:00,VALID,0,VALID,99.531,VALID,0.0339617,VALID,17.4573,VALID,122,VALID,0,
1999-09-05, 04:10:00,VALID,0,VALID,99.5005,VALID,0.0169808,VALID,17.431,VALID,122,VALID,0,
1999-09-05, 04:11:00,VALID,0,VALID,99.4992,VALID,0.0339617,VALID,17.4312,VALID,122,VALID,0,
1999-09-05, 04:12:00,VALID,0,VALID,99.5272,VALID,0,VALID,17.4377,VALID,122,VALID,0,
1999-09-05, 04:13:00,VALID,0,VALID,99.5387,VALID,0,VALID,17.4407,VALID,122,VALID,0,
1999-09-05, 04:14:00,VALID,0,VALID,99.5285,VALID,0,VALID,17.451,VALID,122,VALID,0,
1999-09-05, 04:15:00,VALID,0,VALID,99.5361,VALID,0.0509425,VALID,17.4474,VALID,113,VALID,0,
1999-09-05, 04:16:00,VALID,0,VALID,99.5348,VALID,0.0169808,VALID,17.464,VALID,105,VALID,0,
1999-09-05, 04:17:00,VALID,0,VALID,99.5641,VALID,0.0509425,VALID,17.4864,VALID,100,VALID,0,
1999-09-05, 04:18:00,VALID,0,VALID,99.5399,VALID,0.0339617,VALID,17.4797,VALID,99,VALID,0,
1999-09-05, 04:19:00,VALID,0,VALID,99.4776,VALID,0.0509425,VALID,17.4702,VALID,99,VALID,0,
1999-09-05, 04:20:00,VALID,0,VALID,99.4471,VALID,0,VALID,17.4538,VALID,99,VALID,0,
1999-09-05, 04:21:00,VALID,0,VALID,99.4229,VALID,0.0169808,VALID,17.431,VALID,90,VALID,0,
1999-09-05, 04:22:00,VALID,0,VALID,99.4484,VALID,0,VALID,17.445,VALID,85,VALID,0,
1999-09-05, 04:23:00,VALID,0,VALID,99.4725,VALID,0,VALID,17.4409,VALID,90,VALID,0,
1999-09-05, 04:24:00,VALID,0,VALID,99.4929,VALID,0.0339617,VALID,17.467,VALID,80,VALID,0.552951,